RH
84 84 86 86 85 83 82 80 80 80 78 77 77 76 75 74 74 76 78 76 75 76 74 75 76 75 73 75 70 76 76 78 76 72 73 73 75 78 77 76 76 70 78
78 81 87 86 85 84 84 84 82 80 78 77 78 75 73 73 76 74 76 75 75 74 74 75 73 74 76 76 68 77 76 79 76 72 68 69 73 74 77 76 77 75 74
77 80 81 85 85 85 85 84 81 78 77 77 77 74 73 76 74 73 75 75 75 74 75 74 75 78 77 76 67 76 76 76 76 72 71 76 72 74 75 76 76 74 79
75 77 81 86 86 86 86 84 82 77 77 78 77 75 76 74 72 72 73 75 74 75 73 74 75 75 71 69 67 73 70 71 72 71 66 63 66 75 76 77 77 74 77
69 74 83 88 87 86 85 84 82 80 78 77 75 77 73 73 72 71 71 74 74 75 74 73 70 72 73 63 66 72 77 75 70 69 70 72 82 71 75 76 76 75 78
68 80 85 86 85 84 84 84 82 80 78 76 76 74 73 73 72 73 73 73 73 75 74 74 74 74 74 68 66 70 71 61 75 77 82 78 77 74 75 76 76 76 80
78 82 82 85 85 85 84 83 82 78 77 77 77 73 77 73 73 73 73 74 74 74 74 74 74 74 72 73 64 66 70 69 72 82 84 85 83 79 74 75 76 78 78
78 79 79 82 84 84 80 79 80 77 76 76 76 71 72 73 74 73 73 73 73 73 73 73 74 74 74 71 68 70 66 67 63 83 78 84 83 79 73 76 77 78 78
70 77 80 79 76 79 82 78 77 76 74 75 77 73 70 70 70 69 72 71 70 72 72 73 74 74 74 72 69 70 69 66 76 77 72 85 85 77 73 76 77 78 78
75 75 78 78 81 88 82 76 76 76 76 76 76 75 72 70 70 70 75 74 70 70 71 71 72 71 72 71 69 64 75 81 81 70 80 84 83 74 75 77 78 78 77
67 70 73 78 83 88 86 75 77 75 75 75 74 75 81 91 84 72 75 72 70 70 70 72 73 72 72 71 69 65 83 94 93 93 94 87 82 70 73 75 77 78 80
64 65 69 72 75 77 70 82 90 77 83 88 88 87 92 87 88 71 72 71 71 70 70 69 71 72 71 81 90 76 94 93 95 94 92 85 79 70 71 75 77 79 79
55 58 63 64 65 66 74 87 90 91 88 80 80 90 91 88 92 78 88 84 81 77 75 74 74 80 84 87 95 95 95 91 91 90 77 83 80 71 73 73 77 78 78
47 53 55 57 56 59 76 81 83 85 82 80 78 80 87 82 90 75 84 78 82 81 86 87 89 86 90 88 91 96 91 95 96 94 86 83 80 74 71 74 76 78 78
45 48 51 53 55 58 70 73 78 74 69 72 76 75 81 80 77 73 77 75 76 75 83 86 95 93 94 87 80 84 94 96 96 89 92 77 80 76 72 71 74 77 77
44 43 47 51 56 65 60 63 72 66 64 70 69 73 74 77 76 72 72 73 77 70 71 77 94 97 97 96 91 86 92 94 93 90 94 78 79 78 76 73 74 75 75
52 46 48 48 50 61 65 60 71 62 63 69 68 71 76 76 76 83 85 72 85 92 84 95 91 91 95 94 91 88 85 90 95 94 90 86 78 79 77 76 77 80 77
49 46 57 42 50 59 63 70 67 71 61 64 74 77 74 73 83 89 94 92 90 92 93 92 96 98 97 98 97 97 96 93 90 89 90 93 94 77 77 77 78 79 77
44 57 74 65 59 63 64 74 66 65 71 64 71 72 75 77 81 91 94 92 87 85 94 94 95 94 98 98 97 98 97 97 94 85 89 88 92 81 77 79 81 79 72
58 70 61 58 60 60 73 76 72 69 70 72 62 69 82 82 86 93 92 93 94 90 95 98 98 96 95 99 97 98 98 98 94 98 91 92 93 86 73 77 80 77 80
58 61 66 69 67 67 78 72 81 72 73 68 72 82 76 84 86 91 91 93 96 93 95 96 98 97 98 98 100 99 98 97 97 99 98 97 90 76 80 79 75 79 70
56 66 74 71 78 72 67 63 73 80 73 69 72 81 79 82 88 92 94 91 92 95 94 94 95 99 97 99 99 99 99 98 98 97 96 90 95 87 72 85 70 70 69
55 69 71 75 75 80 75 71 87 84 91 82 80 87 83 82 85 89 89 93 93 96 98 96 95 93 99 99 96 97 99 98 99 100 92 88 91 95 93 73 68 62 64
54 58 72 73 74 83 84 74 79 70 90 85 80 91 93 87 86 92 90 95 96 98 95 96 98 97 96 99 100 98 98 96 97 98 98 95 96 94 91 85 70 62 60
46 55 73 73 73 70 72 84 82 86 84 84 85 89 89 92 91 93 94 94 96 95 96 94 94 98 98 97 98 99 99 99 97 99 98 99 98 96 94 81 74 70 61
43 51 61 76 77 72 78 74 90 91 86 95 92 95 90 88 94 93 95 94 94 95 94 96 94 93 97 98 98 98 98 98 99 98 98 98 94 97 95 86 74 71 68
Wind_Speed
10 12 18 18 19 17 17 17 16 15 15 14 14 15 15 15 13 13 12 13 11 12 11 12 13 14 15 16 17 17 18 19 17 18 18 17 15 15 18 19 18 14 18
17 14 19 20 20 18 18 17 16 15 14 14 14 14 13 13 12 12 11 12 12 11 12 13 13 13 15 16 15 16 16 16 17 18 18 16 16 13 18 19 18 14 18
17 15 16 19 19 18 17 17 16 16 14 13 13 13 12 12 12 12 12 11 13 12 13 13 13 12 14 15 14 15 14 13 15 18 18 8 9 17 18 19 19 17 17
17 14 14 19 18 18 17 17 16 16 14 14 13 12 11 11 11 12 12 12 12 14 13 13 14 11 13 13 15 14 13 11 13 13 8 7 12 18 17 18 17 17 17
16 15 15 18 18 18 18 17 16 15 15 14 13 12 12 12 12 12 12 12 12 13 14 13 14 12 13 13 14 14 12 8 9 4 7 8 5 13 16 16 16 16 16
17 14 18 19 19 18 17 16 17 16 15 13 12 13 13 13 12 13 12 13 12 14 14 14 13 10 12 12 12 12 12 9 11 9 7 11 6 14 14 16 16 16 15
17 14 15 19 18 17 17 16 16 16 15 13 12 11 11 13 13 11 12 12 12 14 14 14 13 10 10 10 10 10 9 6 4 9 7 7 6 14 15 15 15 15 14
21 16 14 19 18 17 17 17 16 15 14 12 14 12 11 12 12 11 11 12 13 13 14 13 13 11 8 7 7 6 4 8 10 8 10 7 11 11 15 15 15 15 15
18 18 14 12 15 18 16 16 15 14 13 13 14 13 11 11 11 11 12 11 11 13 13 13 12 11 8 5 2 5 5 6 5 6 10 5 12 13 15 15 14 15 15
16 14 12 12 10 8 9 15 15 14 13 12 13 12 12 12 12 11 10 11 12 12 12 11 11 10 9 5 3 1 12 10 6 7 6 5 12 13 14 15 15 15 15
14 14 13 12 9 7 7 10 13 15 13 12 11 12 8 4 3 8 11 12 12 13 12 11 11 10 9 8 5 4 13 4 5 3 3 11 13 14 13 13 16 16 14
19 17 15 14 12 10 10 8 6 7 5 6 6 6 4 5 3 6 10 13 14 12 12 11 11 11 9 3 1 5 4 5 3 3 3 13 14 15 15 14 13 16 15
20 16 16 16 14 12 10 7 5 3 4 5 8 7 6 5 3 4 3 4 4 9 4 6 5 3 3 2 4 4 5 3 0 0 5 10 12 14 13 15 14 16 16
18 20 18 17 14 11 10 8 8 6 6 6 8 10 6 3 4 5 4 5 5 4 6 5 4 5 5 4 8 4 8 1 2 3 4 11 10 12 14 14 15 15 16
13 20 19 17 13 11 12 8 8 8 7 7 6 9 7 5 7 5 5 5 5 5 5 6 4 3 3 5 4 6 10 12 6 5 2 14 12 14 14 15 15 16 17
10 19 20 17 14 10 10 10 9 7 8 6 7 6 10 6 5 6 4 4 3 4 5 7 6 6 4 4 4 5 8 9 9 7 3 6 15 15 14 15 16 15 15
8 11 20 16 15 10 8 7 6 8 5 6 8 8 7 7 7 6 4 3 3 3 5 4 4 5 4 4 5 4 4 6 5 5 5 4 7 15 16 15 14 14 15
10 16 16 13 13 10 8 5 5 4 4 5 6 7 8 8 8 6 5 3 3 4 4 4 2 3 3 3 2 4 4 4 8 9 7 5 4 6 12 15 12 11 14
12 16 12 11 11 10 7 6 5 3 1 4 5 7 8 8 8 6 5 4 3 3 2 3 3 3 3 3 3 3 4 5 5 6 7 7 6 6 5 12 14 11 14
12 18 15 13 14 12 6 5 3 3 3 3 7 7 7 6 7 6 5 6 5 3 2 3 3 0 2 4 3 5 5 4 4 5 6 5 7 6 5 6 6 8 12
9 13 12 12 14 10 5 6 3 4 3 3 4 8 10 7 8 7 5 5 4 4 4 6 4 4 2 3 3 1 3 4 4 4 5 5 8 9 5 5 7 5 7
10 12 10 11 13 11 9 7 4 4 3 3 4 7 10 10 8 7 6 5 6 4 5 5 5 3 3 4 3 1 2 1 4 6 5 7 8 7 9 6 9 9 8
12 11 12 10 11 9 10 6 2 3 2 2 2 3 7 10 9 8 7 6 6 5 4 5 5 6 4 4 5 4 3 3 2 3 7 7 9 7 5 9 11 11 10
12 12 14 13 11 8 9 10 7 6 4 4 4 4 6 7 7 7 7 6 6 4 5 4 5 5 4 4 2 4 2 3 3 1 3 6 7 9 10 6 9 11 11
14 15 13 15 13 12 11 8 8 6 4 4 3 6 7 6 7 7 7 6 5 4 4 6 4 5 5 4 3 3 4 3 4 3 3 4 4 6 8 10 9 9 11
16 14 15 16 16 15 13 14 9 9 7 5 5 5 6 7 6 7 8 7 7 6 6 5 6 5 4 4 4 4 4 4 4 6 3 3 8 4 7 8 10 9 9
Wind_Direction
150 150 144 145 137 133 132 128 123 118 113 109 102 97 93 90 88 88 89 91 94 102 101 99 101 114 112 109 106 106 106 102 98 96 94 99 104 110 107 99 99 103 102
140 146 142 143 139 140 132 130 130 128 122 114 108 104 101 98 97 96 94 98 101 103 103 99 103 111 117 106 105 106 107 110 106 103 99 100 95 114 101 100 99 102 104
135 141 140 140 141 137 134 130 133 135 132 123 113 107 103 98 99 102 100 99 105 106 104 107 102 104 105 102 106 103 105 113 113 108 99 89 97 100 103 106 106 108 100
134 138 138 139 140 139 137 134 134 134 133 128 119 112 106 104 102 108 106 104 111 105 108 112 114 114 98 99 107 108 106 104 132 89 114 96 102 107 106 105 111 112 106
139 137 138 135 138 140 140 139 138 136 132 126 122 115 107 106 103 107 111 112 106 112 110 116 114 112 107 108 116 116 105 129 149 83 100 101 86 110 108 114 115 115 114
130 133 133 133 134 138 140 142 139 137 131 130 126 117 113 110 111 111 116 114 117 118 115 112 113 116 118 115 119 122 118 119 62 94 101 101 104 117 113 111 115 115 114
131 135 134 135 136 137 138 139 138 136 136 135 129 122 120 120 116 125 119 122 119 117 120 119 119 119 121 124 128 135 149 173 97 107 96 102 98 123 115 115 114 114 115
136 139 139 138 137 138 139 139 139 142 142 144 137 132 124 122 124 117 122 127 127 124 123 128 129 127 124 116 120 115 126 176 144 122 122 114 126 126 125 124 121 120 120
134 140 141 141 144 146 145 147 147 145 149 154 149 144 136 134 132 132 126 128 128 131 133 138 136 134 129 136 121 104 64 97 115 117 125 124 139 138 134 134 125 122 122
131 133 141 144 138 142 148 153 151 152 153 150 158 157 151 152 147 141 138 133 135 130 132 136 136 139 144 160 210 74 72 51 87 126 124 137 138 144 142 136 133 126 126
144 147 146 141 144 149 145 159 159 158 160 160 169 163 166 139 152 153 154 147 149 142 142 146 151 151 155 167 184 138 93 63 70 67 119 150 148 151 150 144 139 133 129
147 159 155 150 161 163 163 154 155 165 157 159 164 167 166 166 179 183 168 163 159 156 157 161 167 169 172 183 165 127 117 117 90 55 129 165 156 156 155 149 151 138 134
163 160 160 158 164 175 160 157 164 174 174 180 177 171 178 174 191 158 157 162 151 165 173 174 174 178 191 192 87 303 68 42 73 153 143 168 166 160 161 156 160 144 137
168 158 162 161 167 161 156 165 173 181 190 191 182 172 175 158 168 180 164 171 171 179 185 179 176 194 131 108 149 163 121 88 235 230 187 179 176 166 167 170 161 150 138
152 160 162 162 167 156 165 173 173 192 187 194 183 171 171 179 169 185 177 181 188 188 186 180 169 167 139 221 136 147 149 193 203 228 180 185 181 173 179 179 171 160 146
169 168 157 164 166 143 174 173 180 191 201 172 180 174 157 168 160 173 176 179 185 187 182 169 168 165 182 192 172 148 163 176 192 194 197 186 190 178 181 185 179 165 152
186 159 159 163 164 151 174 173 167 193 172 166 170 174 175 149 163 157 159 144 114 89 114 107 130 150 154 165 151 179 143 170 164 186 185 201 196 186 188 192 188 170 157
184 150 150 163 163 157 154 176 155 173 197 177 169 170 166 154 150 149 133 131 122 111 122 157 122 127 156 152 201 203 188 183 178 200 201 180 187 195 196 190 179 184 170
188 136 162 155 162 165 167 159 181 202 251 154 158 159 169 157 150 141 142 155 127 87 72 135 65 105 142 178 229 232 214 188 184 192 203 188 186 195 192 196 182 190 182
135 148 170 167 166 170 159 152 173 191 236 140 165 173 163 159 153 144 150 151 147 138 129 132 141 245 116 177 205 217 223 197 201 179 193 177 197 217 198 180 190 192 204
143 153 166 148 163 160 161 167 157 197 208 233 155 156 154 148 148 155 157 151 153 172 161 163 149 177 193 164 117 276 253 227 208 204 170 175 195 210 208 191 188 184 206
162 161 162 158 153 167 171 174 167 166 196 196 167 163 156 155 154 162 162 164 162 171 178 175 178 148 181 182 144 135 202 262 211 207 186 191 196 203 213 201 192 188 191
170 164 168 165 166 159 168 164 159 138 116 158 161 153 167 164 166 163 172 162 169 174 184 178 180 181 164 200 207 159 159 216 172 169 210 200 194 208 209 199 194 194 187
174 172 165 168 174 165 154 175 182 190 174 197 182 161 159 158 165 164 164 159 171 176 194 189 171 190 173 171 205 241 241 152 184 231 201 209 190 202 213 201 196 194 194
179 177 167 173 177 178 185 166 178 183 181 186 170 156 170 164 164 152 158 168 185 186 192 192 214 215 193 161 170 146 212 224 235 241 246 193 203 205 204 202 201 206 203
184 176 175 174 181 183 182 193 182 180 182 187 199 171 173 177 172 176 169 180 188 188 194 197 195 212 228 217 176 177 178 173 206 211 212 213 205 206 197 202 202 205 205